Seward, AK

8:23 PM AKDT on April 25, 2018 (GMT -0800)
Seward

Weather History for PAWD - June, 2013

Change the Weather History Date:

Thursday, June 20, 2013

  Actual Average Record
Temperature  
Mean Temperature 50 °F -  
Max Temperature 57 °F 57 °F 72 °F (1954)
Min Temperature 44 °F 45 °F 37 °F (1951)
Degree Days  
Heating Degree Days 14    
Moisture  
Dew Point 48 °F    
Average Humidity 84    
Maximum Humidity 93    
Minimum Humidity 74    
Precipitation  
Precipitation 0.00 in - - ()
Sea Level Pressure  
Sea Level Pressure 30.05 in    
Wind  
Wind Speed 4 mph (South)    
Max Wind Speed 13 mph    
Max Gust Speed 20 mph    
Visibility 10 miles    
Events      
Averages and records for this station are not official NWS values.
T = Trace of Precipitation, MM = Missing Value Source: NWS Daily Summary

Daily Weather History Graph

Daily Weather History Graph

Search for Another Location

Airport or City:

Astronomy

Jun. 20, 2013 Rise Set
Actual Time 4:31 AM AKDT 11:26 PM AKDT
Civil Twilight 2:41 AM AKDT 1:17 AM AKDT
Nautical Twilight Sun does not set Sun does not set
Astronomical Twilight Sun does not set Sun does not set
Moon 8:05 PM AKDT (6/20) 2:51 AM AKDT (6/20)
Length of Visible Light 22h 36m
Length of Day
18h 55m
Waxing Gibbous, 90% of the Moon is Illuminated
Jun 20
Waxing Gibbous
Jun 23
Full
Jun 29
Last Quarter
Jul 7
New
Jul 15
First Quarter

Hourly Weather History & Observations

Time (AKDT) Temp. Dew Point Humidity Pressure Visibility Wind Dir Wind Speed Gust Speed Precip Events Conditions
12:53 AM 50.0 °F 46.9 °F 89% 30.05 in 10.0 mi Calm Calm - N/A   Overcast
1:04 AM 50.0 °F 46.4 °F 87% 30.05 in 10.0 mi Calm Calm - N/A   Overcast
1:53 AM 48.0 °F 46.0 °F 93% 30.05 in 9.0 mi Calm Calm - N/A   Scattered Clouds
2:53 AM 45.0 °F 43.0 °F 93% 30.05 in 10.0 mi Calm Calm - N/A   Partly Cloudy
3:12 AM 44.6 °F 42.8 °F 93% 30.05 in 10.0 mi Calm Calm - N/A   Mostly Cloudy
3:53 AM 46.0 °F 44.1 °F 93% 30.04 in 10.0 mi Calm Calm - N/A   Overcast
4:53 AM 48.0 °F 46.0 °F 93% 30.03 in 10.0 mi Calm Calm - N/A   Overcast
5:53 AM 48.9 °F 46.0 °F 90% 30.03 in 10.0 mi Calm Calm - N/A   Overcast
6:53 AM 48.9 °F 46.0 °F 90% 30.04 in 10.0 mi Calm Calm - N/A   Overcast
7:53 AM 50.0 °F 46.0 °F 86% 30.04 in 10.0 mi Calm Calm - N/A   Overcast
8:53 AM 51.1 °F 46.0 °F 83% 30.05 in 10.0 mi SSE 3.5 mph - N/A   Overcast
9:53 AM 52.0 °F 46.9 °F 83% 30.05 in 10.0 mi Calm Calm - N/A   Overcast
10:53 AM 53.1 °F 46.9 °F 80% 30.05 in 10.0 mi SSE 3.5 mph - N/A   Overcast
11:53 AM 54.0 °F 46.9 °F 77% 30.03 in 10.0 mi South 3.5 mph - N/A   Overcast
12:33 PM 55.4 °F 48.2 °F 77% 30.03 in 10.0 mi SSE 6.9 mph - N/A   Scattered Clouds
12:53 PM 57.0 °F 48.9 °F 74% 30.03 in 10.0 mi Variable 6.9 mph - N/A   Clear
1:53 PM 57.0 °F 50.0 °F 77% 30.04 in 10.0 mi SSE 10.4 mph 18.4 mph N/A   Clear
2:11 PM 55.4 °F 50.0 °F 82% 30.04 in 10.0 mi South 9.2 mph - N/A   Mostly Cloudy
2:33 PM 55.4 °F 50.0 °F 82% 30.04 in 10.0 mi South 6.9 mph 16.1 mph N/A   Scattered Clouds
2:53 PM 55.0 °F 50.0 °F 83% 30.05 in 10.0 mi South 6.9 mph - N/A   Partly Cloudy
3:39 PM 55.4 °F 50.0 °F 82% 30.06 in 10.0 mi South 6.9 mph - 0.00 in   Overcast
3:53 PM 55.9 °F 50.0 °F 80% 30.06 in 10.0 mi SSE 12.7 mph 19.6 mph 0.00 in   Mostly Cloudy
4:01 PM 55.4 °F 50.0 °F 82% 30.05 in 10.0 mi SSE 9.2 mph 19.6 mph N/A   Mostly Cloudy
4:21 PM 57.2 °F 51.8 °F 82% 30.06 in 10.0 mi South 10.4 mph - N/A   Overcast
4:53 PM 57.0 °F 51.1 °F 81% 30.06 in 10.0 mi South 10.4 mph - N/A   Mostly Cloudy
5:03 PM 55.4 °F 50.0 °F 82% 30.05 in 10.0 mi South 10.4 mph 19.6 mph N/A   Scattered Clouds
5:19 PM 55.4 °F 51.8 °F 88% 30.06 in 10.0 mi South 9.2 mph 18.4 mph N/A   Mostly Cloudy
5:53 PM 55.9 °F 50.0 °F 80% 30.06 in 10.0 mi South 10.4 mph 17.3 mph N/A   Mostly Cloudy
6:18 PM 55.4 °F 48.2 °F 77% 30.05 in 10.0 mi South 9.2 mph 18.4 mph N/A   Mostly Cloudy
6:32 PM 53.6 °F 48.2 °F 82% 30.05 in 10.0 mi South 11.5 mph 18.4 mph N/A   Mostly Cloudy
6:41 PM 53.6 °F 48.2 °F 82% 30.05 in 10.0 mi South 12.7 mph 18.4 mph N/A   Mostly Cloudy
6:51 PM 53.6 °F 48.2 °F 82% 30.06 in 10.0 mi South 11.5 mph 17.3 mph N/A   Overcast
6:53 PM 54.0 °F 48.9 °F 83% 30.06 in 10.0 mi South 10.4 mph 17.3 mph N/A   Overcast
7:29 PM 53.6 °F 48.2 °F 82% 30.05 in 10.0 mi SSW 12.7 mph - N/A   Overcast
7:53 PM 54.0 °F 48.9 °F 83% 30.05 in 10.0 mi SSW 10.4 mph - N/A   Overcast
8:32 PM 53.6 °F 48.2 °F 82% 30.06 in 10.0 mi South 9.2 mph - N/A   Mostly Cloudy
8:53 PM 53.1 °F 48.0 °F 83% 30.06 in 10.0 mi SSW 11.5 mph - N/A   Mostly Cloudy
9:53 PM 53.1 °F 48.0 °F 83% 30.06 in 10.0 mi Variable 6.9 mph - N/A   Overcast
10:53 PM 53.1 °F 48.0 °F 83% 30.07 in 10.0 mi South 8.1 mph 17.3 mph N/A   Overcast
11:53 PM 52.0 °F 48.0 °F 86% 30.08 in 10.0 mi SSE 9.2 mph - N/A   Overcast